1399766431177,100.254
1399766491177,100.422
1399766551177,101.387
1399766611177,100.938
1399766671177,100.839
1399766731177,100.763
1399766791177,101.049
1399766851177,101.766
1399766911177,101.082
1399766971177,101.025
1399767031177,101.095
1399767091177,100.885
1399767151177,101.118
1399767211177,101.172
1399767271177,101.481
1399767331177,100.954
1399767391177,100.954
1399767451177,101.505
1399767511177,100.602
1399767571177,100.945
1399767631177,101.545
1399767691177,100.977
1399767751177,100.819
1399767811177,101.122
1399767871177,101.123
1399767931177,100.844
1399767991177,101.210
1399768051177,101.268
1399768111177,101.045
1399768171177,101.141
1399768231177,100.833
1399768291177,100.591
1399768351177,100.588
1399768411177,100.953
1399768471177,101.309
1399768531177,101.192
1399768591177,100.936
1399768651177,101.076
1399768711177,100.878
1399768771177,101.414
1399768831177,101.105
1399768891177,101.519
1399768951177,101.364
1399769011177,100.718
1399769071177,101.232
1399769131177,101.485
1399769191177,101.253
1399769251177,100.866
1399769311177,100.904
1399769371177,100.803
1399769431177,100.982
1399769491177,101.604
1399769551177,101.144
1399769611177,101.165
1399769671177,101.404
1399769731177,101.264
1399769791177,101.220
1399769851177,101.911
1399769911177,101.063
1399769971177,101.146
1399770031187,101.274
1399770091187,100.684
1399770151187,101.206
1399770211187,100.676
1399770271187,100.774
1399770331187,100.492
1399770391187,100.812
1399770451187,100.970
1399770511187,101.503
1399770571187,100.492
1399770631187,101.150
1399770691187,101.315
1399770751187,100.910
1399770811187,100.958
1399770871187,100.449
1399770931187,101.024
1399770991187,101.206
1399771051187,100.368
1399771111187,100.546
1399771171187,100.541
1399771231187,100.830
1399771291187,100.512
1399771351187,100.836
1399771411187,100.558
1399771471187,100.234
1399771531187,101.165
1399771591187,100.215
1399771651187,100.046
1399771711187,100.540
1399771771187,100.325
1399771831187,100.755
1399771891187,100.036
1399771951187,100.328
1399772011187,100.733
1399772071187,100.065
1399772131187,99.8565
1399772191187,100.688
1399772251187,100.829
1399772311187,100.210
1399772371187,100.121
1399772431187,100.711
1399772491187,100.277
1399772551187,100.439
1399772611187,99.7427
1399772671187,100.374
1399772731187,100.177
1399772791187,100.263
1399772851187,100.122
1399772911187,99.6784
1399772971187,100.123
1399773031187,100.137
1399773091187,100.352
1399773151187,100.439
1399773211187,99.8047
1399773271187,100.197
1399773331187,100.270
1399773391187,100.073
1399773451187,100.066
1399773511187,99.3779
1399773571187,100.301
1399773631198,100.519
1399773691198,100.060
1399773751198,100.313
1399773811198,99.6074
1399773871198,99.9569
1399773931198,99.7069
1399773991198,99.5580
1399774051198,99.7129
1399774111198,99.6884
1399774171198,99.5519
1399774231198,99.7402
1399774291198,99.7450
1399774351198,99.6835
1399774411198,99.6773
1399774471198,99.5462
1399774531198,99.8472
1399774591198,99.6873
1399774651198,99.3060
1399774711198,99.4665
1399774771198,99.2935
1399774831198,99.2543
1399774891198,99.1739
1399774951198,99.1542
1399775011198,99.0195
1399775071198,99.2295
1399775131198,99.4830
1399775191198,98.8936
1399775251198,99.4460
1399775311198,99.5293
1399775371198,98.8835
1399775431198,99.4593
1399775491198,99.1854
1399775551198,98.9875
1399775611198,99.0950
1399775671198,99.3088
1399775731198,99.5012
1399775791198,98.5025
1399775851198,99.1516
1399775911198,98.9042
1399775971198,99.5641
1399776031198,98.7933
1399776091198,98.6388
1399776151198,99.2006
1399776211198,99.6088
1399776271198,99.0299
1399776331198,99.4295
1399776391198,98.9250
1399776451198,98.7744
1399776511198,99.1920
1399776571198,98.8839
1399776631198,99.2718
1399776691198,99.0752
1399776751198,98.7947
1399776811198,99.3192
1399776871198,99.2621
1399776931198,98.9531
1399776991198,98.9975
1399777051198,98.8693
1399777111198,99.0183
1399777171198,98.9990
1399777231208,98.8382
1399777291208,98.5921
1399777351208,99.0101
1399777411208,98.6679
1399777471208,98.7066
1399777531208,98.6814
1399777591208,98.7045
1399777651208,98.8452
1399777711208,98.2576
1399777771208,98.6621
1399777831208,99.0822
1399777891208,99.0665
1399777951208,99.0019
1399778011208,98.7738
1399778071208,98.8060
1399778131208,98.6326
1399778191208,98.5934
1399778251208,98.8161
1399778311208,98.6731
1399778371208,98.3387
1399778431208,98.3197
1399778491208,98.5255
1399778551208,98.5140
1399778611208,98.5481
1399778671208,98.5062
1399778731208,99.0661
1399778791208,98.7801
1399778851208,98.6082
1399778911208,98.3748
1399778971208,98.7790
1399779031208,98.6862
1399779091208,98.4268
1399779151208,98.9255
1399779211208,98.4771
1399779271208,98.5069
1399779331208,99.1963
1399779391208,98.6491
1399779451208,98.6973
1399779511208,98.7160
1399779571208,98.7481
1399779631208,98.4201
1399779691208,98.6969
1399779751208,98.4988
1399779811208,98.5806
1399779871208,98.6724
1399779931208,98.8307
1399779991208,98.2241
1399780051208,97.7355
1399780111208,98.0787
1399780171208,98.9680
1399780231208,98.2494
1399780291208,98.7451
1399780351208,98.3004
1399780411208,98.3081
1399780471208,98.4806
1399780531208,98.7075
1399780591208,98.7932
1399780651208,98.5957
1399780711208,98.3864
1399780771208,98.2695
1399780831217,98.5046
1399780891217,98.3940
1399780951217,98.3041
1399781011217,98.5455
1399781071217,98.4063
1399781131217,98.2585
1399781191217,98.2902
1399781251217,98.3821
1399781311217,98.5733
1399781371217,98.6529
1399781431217,98.3106
1399781491217,98.4165
1399781551217,98.6725
1399781611217,98.4752
1399781671217,98.6025
1399781731217,98.8185
1399781791217,98.5417
1399781851217,98.5571
1399781911217,98.2828
1399781971217,98.9499
1399782031217,98.8243
1399782091217,98.6900
1399782151217,98.3677
1399782211217,98.5855
1399782271217,98.5605
1399782331217,98.4459
1399782391217,98.7544
1399782451217,98.4693
1399782511217,98.5288
1399782571217,98.2816
1399782631217,98.5965
1399782691217,98.9048
1399782751217,98.4428
1399782811217,98.6315
1399782871217,98.5386
1399782931217,99.0168
1399782991217,98.9121
1399783051217,99.2619
1399783111217,98.8225
1399783171217,99.3304
1399783231217,99.4409
1399783291217,99.6120
1399783351217,100.447
1399783411217,100.486
1399783471217,100.386
1399783531217,99.6740
1399783591217,99.8529
1399783651217,99.9545
1399783711217,99.5814
1399783771217,99.6579
1399783831217,99.9809
1399783891217,99.4798
1399783951217,99.5686
1399784011217,99.5593
1399784071217,99.7789
1399784131217,99.0607
1399784191217,99.0886
1399784251217,98.9386
1399784311217,99.0044
1399784371217,98.6798
1399784431227,98.5361
1399784491227,99.2503
1399784551227,99.0856
1399784611227,98.6199
1399784671227,98.5612
1399784731227,98.4947
1399784791227,98.7514
1399784851227,98.7040
1399784911227,98.7017
1399784971227,98.6892
1399785031227,98.6598
1399785091227,98.4373
1399785151227,98.5086
1399785211227,99.1486
1399785271227,99.3088
1399785331227,98.8718
1399785391227,98.8850
1399785451227,99.2965
1399785511227,98.9369
1399785571227,98.9613
1399785631227,99.0055
1399785691227,98.9965
1399785751227,99.1164
1399785811227,99.3909
1399785871227,99.3508
1399785931227,99.0861
1399785991227,99.1989
1399786051227,98.6992
1399786111227,98.9340
1399786171227,98.7544
1399786231227,98.8359
1399786291227,98.8301
1399786351227,98.8355
1399786411227,98.6023
1399786471227,98.7154
1399786531227,98.1648
1399786591227,98.6878
1399786651227,98.0146
1399786711227,98.4201
1399786771227,98.6045
1399786831227,99.0727
1399786891227,98.7844
1399786951227,98.7277
1399787011227,98.3973
1399787071227,98.4903
1399787131227,98.7264
1399787191227,98.4948
1399787251227,98.0880
1399787311227,98.2849
1399787371227,98.4906
1399787431227,98.2144
1399787491227,98.2615
1399787551227,98.7282
1399787611227,97.9519
1399787671227,98.2721
1399787731227,98.1867
1399787791227,98.0717
1399787851227,98.3200
1399787911227,98.3021
1399787971227,97.7843
1399788031236,98.0410
1399788091236,98.4186
1399788151236,98.0634
1399788211236,97.7705
1399788271236,97.9866
1399788331236,98.1898
1399788391236,98.1106
1399788451236,97.9118
1399788511236,97.9166
1399788571236,97.9041
1399788631236,98.0893
1399788691236,98.2557
1399788751236,98.7154
1399788811236,98.2421
1399788871236,98.3436
1399788931236,98.0619
1399788991236,98.2976
1399789051236,98.3282
1399789111236,97.9969
1399789171236,98.3058
1399789231236,98.5637
1399789291236,98.1838
1399789351236,98.0285
1399789411236,98.3655
1399789471236,98.7068
1399789531236,98.0833
1399789591236,98.4173
1399789651236,98.2041
1399789711236,98.1104
1399789771236,98.1197
1399789831236,98.0473
1399789891236,98.2256
1399789951236,97.8565
1399790011236,98.4217
1399790071236,98.3069
1399790131236,98.5108
1399790191236,98.4392
1399790251236,98.3513
1399790311236,98.7776
1399790371236,98.0869
1399790431236,98.3368
1399790491236,97.8936
1399790551236,98.5468
1399790611236,98.3911
1399790671236,98.3561
1399790731236,98.0906
1399790791236,97.9811
1399790851236,98.2300
1399790911236,98.2458
1399790971236,98.5395
1399791031236,98.8143
1399791091236,98.3381
1399791151236,98.1173
1399791211236,98.4598
1399791271236,98.9658
1399791331236,99.0194
1399791391236,98.6273
1399791451236,98.3320
1399791511236,98.8707
1399791571236,98.5154
1399791631246,98.5801
1399791691246,98.3328
1399791751246,98.6548
1399791811246,98.8222
1399791871246,98.5929
1399791931246,98.8209
1399791991246,98.7254
1399792051246,98.4117
1399792111246,98.8837
1399792171246,98.7871
1399792231246,98.9686
1399792291246,98.4349
1399792351246,99.0871
1399792411246,98.4560
1399792471246,98.7803
1399792531246,98.8140
1399792591246,98.6092
1399792651246,98.6869
1399792711246,98.8394
1399792771246,98.7255
1399792831246,99.1501
1399792891246,98.7771
1399792951246,99.2250
1399793011246,99.2044
1399793071246,98.8084
1399793131246,98.9072
1399793191246,98.4519
1399793251246,98.6896
1399793311246,98.8874
1399793371246,99.4228
1399793431246,98.8933
1399793491246,98.8488
1399793551246,98.8014
1399793611246,98.9297
1399793671246,98.7750
1399793731246,99.3018
1399793791246,98.9907
1399793851246,99.1237
1399793911246,99.8646
1399793971246,99.0869
1399794031246,99.6599
1399794091246,99.6247
1399794151246,99.6780
1399794211246,99.8324
1399794271246,99.5883
1399794331246,100.122
1399794391246,99.4983
1399794451246,99.6762
1399794511246,99.9391
1399794571246,100.143
1399794631246,99.6267
1399794691246,99.5372
1399794751246,99.6037
1399794811246,99.8739
1399794871246,99.9086
1399794931246,100.097
1399794991246,99.9082
1399795051246,100.171
1399795111246,100.173
1399795171246,100.074
1399795231255,100.079
1399795291255,100.100
1399795351255,100.122
1399795411255,100.042
1399795471255,99.8655
1399795531255,100.428
1399795591255,100.306
1399795651255,100.061
1399795711255,100.430
1399795771255,100.464
1399795831255,100.133
1399795891255,99.6462
1399795951255,100.144
1399796011255,100.310
1399796071255,99.9345
1399796131255,100.279
1399796191255,100.550
1399796251255,99.8583
1399796311255,100.188
1399796371255,99.7622
1399796431255,100.362
1399796491255,100.093
1399796551255,100.262
1399796611255,100.355
1399796671255,100.717
1399796731255,100.600
1399796791255,100.377
1399796851255,100.554
1399796911255,100.737
1399796971255,100.589
1399797031255,100.535
1399797091255,100.665
1399797151255,100.674
1399797211255,100.324
1399797271255,100.311
1399797331255,100.541
1399797391255,100.649
1399797451255,100.450
1399797511255,100.507
1399797571255,100.875
1399797631255,100.489
1399797691255,100.744
1399797751255,100.331
1399797811255,100.742
1399797871255,100.455
1399797931255,100.580
1399797991255,100.524
1399798051255,100.537
1399798111255,100.125
1399798171255,100.660
1399798231255,100.467
1399798291255,100.755
1399798351255,100.061
1399798411255,100.582
1399798471255,100.292
1399798531255,101.024
1399798591255,100.634
1399798651255,100.620
1399798711255,100.658
1399798771255,100.395
1399798831264,100.532
1399798891264,100.624
1399798951264,100.262
1399799011264,100.862
1399799071264,100.510
1399799131264,100.084
1399799191264,100.729
1399799251264,99.8324
1399799311264,100.263
1399799371264,100.471
1399799431264,100.303
1399799491264,100.324
1399799551264,100.147
1399799611264,99.8158
1399799671264,100.150
1399799731264,100.459
1399799791264,100.820
1399799851264,100.387
1399799911264,100.616
1399799971264,100.612
1399800031264,100.893
1399800091264,100.885
1399800151264,100.924
1399800211264,100.333
1399800271264,100.423
1399800331264,100.393
1399800391264,100.489
1399800451264,99.9852
1399800511264,100.022
1399800571264,100.097
1399800631264,100.312
1399800691264,99.8666
1399800751264,100.299
1399800811264,100.156
1399800871264,99.8097
1399800931264,100.620
1399800991264,100.615
1399801051264,100.203
1399801111264,100.005
1399801171264,99.9494
1399801231264,100.196
1399801291264,100.260
1399801351264,99.8250
1399801411264,100.101
1399801471264,100.211
1399801531264,100.499
1399801591264,100.019
1399801651264,100.389
1399801711264,100.574
1399801771264,100.309
1399801831264,100.486
1399801891264,100.032
1399801951264,100.839
1399802011264,100.440
1399802071264,100.435
1399802131264,100.786
1399802191264,100.410
1399802251264,100.523
1399802311264,101.052
1399802371264,100.562
1399802431273,100.492
1399802491273,100.626
1399802551273,100.914
1399802611273,100.455
1399802671273,100.440
1399802731273,100.408
1399802791273,100.026
1399802851273,100.188
1399802911273,100.584
1399802971273,100.454
1399803031273,100.322
1399803091273,100.311
1399803151273,100.425
1399803211273,100.122
1399803271273,100.104
1399803331273,100.692
1399803391273,100.457
1399803451273,100.788
1399803511273,100.426
1399803571273,100.383
1399803631273,100.198
1399803691273,100.598
1399803751273,100.178
1399803811273,100.351
1399803871273,99.8745
1399803931273,106.277
1399803991273,100.058
1399804051273,100.508
1399804111273,100.432
1399804171273,100.802
1399804231273,100.487
1399804291273,100.504
1399804351273,100.999
1399804411273,100.892
1399804471273,101.099
1399804531273,100.406
1399804591273,100.685
1399804651273,101.204
1399804711273,100.689
1399804771273,100.236
1399804831273,100.628
1399804891273,100.703
1399804951273,100.794
1399805011273,100.678
1399805071273,100.167
1399805131273,100.930
1399805191273,100.707
1399805251273,100.625
1399805311273,100.789
1399805371273,100.710
1399805431273,100.335
1399805491273,100.166
1399805551273,100.377
1399805611273,100.224
1399805671273,100.486
1399805731273,100.167
1399805791273,100.707
1399805851273,100.147
1399805911273,100.329
1399805971273,100.021
1399806031282,100.162
1399806091282,100.563
1399806151282,100.118
1399806211282,100.485
1399806271282,100.298
1399806331282,100.026
1399806391282,100.170
1399806451282,100.020
1399806511282,100.308
1399806571282,100.482
1399806631282,100.376
1399806691282,100.336
1399806751282,99.9202
1399806811282,100.175
1399806871282,100.245
1399806931282,100.023
1399806991282,100.279
1399807051282,100.310
1399807111282,100.280
1399807171282,99.7710
1399807231282,100.002
1399807291282,100.012
1399807351282,100.228
1399807411282,99.8389
1399807471282,99.6500
1399807531282,99.7483
1399807591282,99.5663
1399807651282,99.8481
1399807711282,99.8856
1399807771282,99.5288
1399807831282,100.309
1399807891282,99.9655
1399807951282,100.076
1399808011282,99.6794
1399808071282,99.5120
1399808131282,99.3541
1399808191282,99.9948
1399808251282,99.7925
1399808311282,99.7290
1399808371282,99.8911
1399808431282,99.6458
1399808491282,99.7181
1399808551282,99.5784
1399808611282,100.131
1399808671282,99.3881
1399808731282,99.6676
1399808791282,99.1353
1399808851282,99.7058
1399808911282,99.5705
1399808971282,100.150
1399809031282,99.9443
1399809091282,99.3893
1399809151282,99.2032
1399809211282,99.6090
1399809271282,99.5113
1399809331282,99.6967
1399809391282,99.7528
1399809451282,99.6129
1399809511282,99.6400
1399809571282,99.3048
1399809631291,99.3804
1399809691291,99.4872
1399809751291,99.5785
1399809811291,99.4372
1399809871291,99.2036
1399809931291,99.4278
1399809991291,99.4708
1399810051291,99.3106
1399810111291,99.1256
1399810171291,98.9308
1399810231291,99.2825
1399810291291,99.0278
1399810351291,99.4842
1399810411291,99.3355
1399810471291,99.4164
1399810531291,99.5629
1399810591291,99.2355
1399810651291,99.6073
1399810711291,99.6875
1399810771291,99.4425
1399810831291,99.3902
1399810891291,99.0571
1399810951291,99.2323
1399811011291,99.2737
1399811071291,99.1538
1399811131291,99.6666
1399811191291,99.1020
1399811251291,99.5646
1399811311291,99.2410
1399811371291,99.5171
1399811431291,99.0631
1399811491291,99.0273
1399811551291,99.5881
1399811611291,99.8895
1399811671291,99.4470
1399811731291,99.7448
1399811791291,99.5104
1399811851291,99.1385
1399811911291,99.2452
1399811971291,98.9626
1399812031291,99.4288
1399812091291,99.6195
1399812151291,98.8543
1399812211291,99.5252
1399812271291,99.5669
1399812331291,98.9544
1399812391291,99.3752
1399812451291,98.8571
1399812511291,99.1013
1399812571291,98.9506
1399812631291,99.0736
1399812691291,99.3554
1399812751291,98.9580
1399812811291,99.1577
1399812871291,99.3450
1399812931291,99.0156
1399812991291,99.1886
1399813051291,99.2559
1399813111291,98.9459
1399813171291,99.5419
1399813231300,99.2696
1399813291300,98.5665
1399813351300,99.1322
1399813411300,99.2020
1399813471300,99.3729
1399813531300,99.0963
1399813591300,98.8510
1399813651300,98.4642
1399813711300,99.1336
1399813771300,98.9557
1399813831300,99.2350
1399813891300,99.1146
1399813951300,99.1442
1399814011300,98.6260
1399814071300,98.7416
1399814131300,99.0998
1399814191300,98.9190
1399814251300,98.5975
1399814311300,99.1107
1399814371300,98.7793
1399814431300,98.9021
1399814491300,98.9406
1399814551300,98.6737
1399814611300,99.0960
1399815751300,99.5528
1399815811300,98.3137
1399815871300,99.0703
1399815931300,98.9287
1399815991300,99.5992
1399816051300,99.5703
1399816111300,99.7103
1399816171300,99.1796
1399816231300,99.5636
1399816291300,99.6096
1399816351300,99.6783
1399816411300,99.4650
1399816471300,99.1994
1399816531300,99.3768
1399816591300,99.6253
1399816651300,99.8123
1399816711300,99.4275
1399816771300,99.9322
1399816831309,100.151
1399816891309,100.016
1399816951309,99.8789
1399817011309,99.8460
1399817071309,100.302
1399817131309,99.8650
1399817191309,99.9161
1399817251309,100.087
1399817311309,100.489
1399817371309,100.362
1399817431309,100.306
1399817491309,100.336
1399817551309,100.491
1399817611309,100.528
1399817671309,100.293
1399817731309,100.287
1399817791309,100.389
1399817851309,100.350
1399817911309,100.335
1399817971309,100.448
1399818031309,100.221
1399818091309,100.750
1399818151309,100.031
1399818211309,100.656
1399818271309,100.725
1399818331309,100.503
1399818391309,100.787
1399818451309,100.719
1399818511309,99.9197
1399818571309,100.340
1399818631309,100.730
1399818691309,100.785
1399818751309,100.301
1399818811309,100.630
1399818871309,100.483
1399818931309,100.184
1399818991309,100.626
1399819051309,100.430
1399819111309,100.721
1399819171309,101.046
1399819231309,100.877
1399819291309,100.650
1399819351309,100.627
1399819411309,100.853
1399819471309,101.054
1399819531309,100.740
1399819591309,100.754
1399819651309,100.993
1399819711309,101.084
1399819771309,100.682
1399819831309,100.661
1399819891309,101.055
1399819951309,100.918
1399820011309,100.626
1399820071309,100.717
1399820131309,100.784
1399820191309,100.895
1399820251309,100.792
1399820311309,100.966
1399820371309,100.492
1399820431319,100.842
1399820491319,100.403
1399820551319,100.854
1399820611319,100.692
1399820671319,100.933
1399820731319,100.889
1399820791319,100.446
1399820851319,100.817
1399820911319,100.924
1399820971319,100.719
1399821031319,100.740
1399821091319,100.528
1399821151319,101.164
1399821211319,100.615
1399821271319,100.753
1399821331319,100.291
1399821391319,100.803
1399821451319,100.762
1399821511319,100.760
1399821571319,100.960
1399821631319,100.617
1399821691319,100.917
1399821751319,100.446
1399821811319,100.923
1399821871319,101.080
1399821931319,101.182
1399821991319,101.229
1399822051319,101.096
1399822111319,101.050
1399822171319,100.766
1399822231319,100.952
1399822291319,100.689
1399822351319,101.121
1399822411319,100.835
1399822471319,100.926
1399822531319,101.142
1399822591319,101.329
1399822651319,101.107
1399822711319,100.865
1399822771319,100.623
1399822831319,101.209
1399822891319,101.478
1399822951319,101.151
1399823011319,101.500
1399823071319,101.301
1399823131319,100.856
1399823191319,101.582
1399823251319,100.811
1399823311319,101.064
1399823371319,101.187
1399823431319,101.524
1399823491319,101.547
1399823551319,101.960
1399823611319,101.407
1399823671319,101.548
1399823731319,101.340
1399823791319,101.244
1399823851319,101.146
1399823911319,101.369
1399823971319,101.300
1399824031328,101.398
1399824091328,101.075
1399824151328,100.657
1399824211328,101.546
1399824271328,101.553
1399824331328,101.295
1399824391328,101.640
1399824451328,101.258
1399824511328,101.432
1399824571328,101.794
1399824631328,101.328
1399824691328,101.382
1399824751328,101.668
1399824811328,101.476
1399824871328,101.610
1399824931328,101.307
1399824991328,101.656
1399825051328,101.622
1399825111328,101.371
1399825171328,101.592
1399825231328,101.764
1399825291328,101.427
1399825351328,101.019
1399825411328,101.685
1399825471328,101.611
1399825531328,101.330
1399825591328,101.491
1399825651328,101.843
1399825711328,101.844
1399825771328,102.158
1399825831328,101.367
1399825891328,101.472
1399825951328,101.391
1399826011328,101.393
1399826071328,102.521
1399826131328,102.003
1399826191328,102.182
1399826251328,101.943
1399826311328,102.515
1399826371328,101.821
1399826431328,101.358
1399826491328,102.023
1399826551328,101.567
1399826611328,102.514
1399826671328,102.206
1399826731328,102.506
1399826791328,102.025
1399826851328,102.135
1399826911328,102.212
1399826971328,102.141
1399827031328,102.349
1399827091328,102.110
1399827151328,102.533
1399827211328,102.813
1399827271328,102.584
1399827331328,102.728
1399827391328,102.884
1399827451328,102.516
1399827511328,102.405
1399827571328,102.315
1399827631337,102.520
1399827691337,102.933
1399827751337,103.006
1399827811337,102.487
1399827871337,102.819
1399827931337,102.976
1399827991337,102.625
1399828051337,102.949
1399828111337,103.204
1399828171337,102.788
1399828231337,103.647
1399828291337,103.013
1399828351337,103.162
1399828411337,102.708
1399828471337,102.719
1399828531337,103.189
1399828591337,103.843
1399828651337,103.239
1399828711337,103.376
1399828771337,103.360
1399828831337,102.806
1399828891337,102.940
1399828951337,103.021
1399829011337,103.629
1399829071337,103.060
1399829131337,102.863
1399829191337,103.323
1399829251337,103.583
1399829311337,103.530
1399829371337,103.468
1399829431337,103.862
1399829491337,103.451
1399829551337,103.543
1399829611337,103.663
1399829671337,103.750
1399829731337,103.781
1399829791337,103.901
1399829851337,103.926
1399829911337,103.841
1399829971337,103.638
1399830031337,103.462
1399830091337,103.838
1399830151337,103.477
1399830211337,103.681
1399830271337,103.461
1399830331337,103.480
1399830391337,103.165
1399830451337,103.595
1399830511337,103.538
1399830571337,103.733
1399830631337,102.981
1399830691337,103.382
1399830751337,103.495
1399830811337,103.588
1399830871337,103.174
1399830931337,102.678
1399830991337,103.239
1399831051337,103.311
1399831111337,103.511
1399831171337,103.284
1399831231347,102.571
1399831291347,103.535
1399831351347,103.365
1399831411347,103.258
1399831471347,103.089
1399831531347,103.494
1399831591347,103.440
1399831651347,103.190
1399831711347,103.128
1399831771347,103.385
1399831831347,103.056
1399831891347,102.822
1399831951347,102.844
1399832011347,103.350
1399832071347,102.976
1399832131347,103.467
1399832191347,103.218
1399832251347,103.545
1399832311347,103.467
1399832371347,103.329
1399832431347,103.060
1399832491347,103.320
1399832551347,103.085
1399832611347,103.300
1399832671347,103.155
1399832731347,102.568
1399832791347,103.041
1399832851347,102.990